"2016-04-10 00:00:00",1533531,10.47,303.1,1.18,0.143,17.59,106.3531,15.54,16.65,27.83,0,110.8,13.12,16.34,265.1
"2016-04-10 00:00:30",1533532,9.68,301.6,2.539,0.409,17.57,106.3511,15.53,16.65,27.99,0,110.8,13.12,16.34,263.6
"2016-04-10 00:01:00",1533533,8.92,301.7,2.213,0.442,17.77,106.3336,15.49,16.62,27.98,0,110.8,13.12,16.29,263.7
"2016-04-10 00:01:30",1533534,8.91,300.8,1.013,0.184,17.73,106.3226,15.46,16.59,27.45,0,110.8,13.12,16.27,262.8
"2016-04-10 00:02:00",1533535,9.38,304.9,2.525,0.314,17.7,106.3186,15.45,16.56,27.79,0,110.8,13.12,16.25,266.9
"2016-04-10 00:02:30",1533536,8.47,303.1,1.699,0.519,17.81,106.2996,15.4,16.53,28.14,0,110.8,13.12,16.21,265.1
"2016-04-10 00:03:00",1533537,9.31,308.7,1.608,0.369,17.79,106.29,15.38,16.51,28.08,0,110.8,13.12,16.18,270.7
"2016-04-10 00:03:30",1533538,9.27,302.7,2.479,0.38,17.66,106.2747,15.34,16.48,27.79,0,110.8,13.12,16.14,264.7
"2016-04-10 00:04:00",1533539,10.53,307.9,2.706,0.474,17.68,106.2589,15.3,16.46,27.99,0,110.8,13.12,16.10,269.9
"2016-04-10 00:04:30",1533540,9.83,308.8,2.166,0.404,17.63,106.2566,15.29,16.41,27.91,0,110.8,13.12,16.10,270.8
"2016-04-10 00:05:00",1533541,10.13,308.9,2.518,0.644,17.63,106.2328,15.23,16.38,27.88,0,110.8,13.12,16.03,270.9
"2016-04-10 00:05:30",1533542,10.35,309.1,0.85,0.243,17.59,106.2306,15.22,16.35,28.04,0,110.8,13.12,16.03,271.1
"2016-04-10 00:06:00",1533543,10.67,311.7,2.285,0.576,17.65,106.2299,15.22,16.33,27.96,0,110.8,13.12,16.03,273.7
"2016-04-10 00:06:30",1533544,11.28,312.7,1.811,0.419,17.68,106.2129,15.18,16.29,27.63,0,110.8,13.12,15.98,274.7
"2016-04-10 00:07:00",1533545,11.1,313.1,1.902,0.229,17.65,106.2031,15.15,16.28,27.77,0,110.8,13.12,15.96,275.1
"2016-04-10 00:07:30",1533546,10.98,312.5,1.484,0.255,17.72,106.2052,15.16,16.25,27.53,0,110.8,13.12,15.96,274.5
"2016-04-10 00:08:00",1533547,10.55,311.6,1.86,0.225,17.71,106.2081,15.17,16.23,27.52,0,110.8,13.12,15.97,273.6
"2016-04-10 00:08:30",1533548,10.43,313.1,1.788,0.236,17.74,106.2074,15.16,16.21,27.49,0,110.8,13.12,15.97,275.1
"2016-04-10 00:09:00",1533549,10.38,314,2.048,0.45,17.72,106.2075,15.16,16.2,27.68,0,110.8,13.12,15.97,276.0
"2016-04-10 00:09:30",1533550,10.32,311.4,1.218,0.422,17.56,106.2052,15.16,16.19,27.76,0,110.8,13.12,15.96,273.4
"2016-04-10 00:10:00",1533551,9.94,310.3,2.233,0.434,17.42,106.2067,15.16,16.18,28.76,0,110.8,13.12,15.97,272.3
"2016-04-10 00:10:30",1533552,10.58,314.9,1.106,0.434,17.64,106.2071,15.16,16.18,28.72,0,110.8,13.12,15.97,276.9
"2016-04-10 00:11:00",1533553,10.38,312.5,2.661,0.387,17.54,106.2054,15.16,16.19,28.57,0,110.8,13.12,15.96,274.5
"2016-04-10 00:11:30",1533554,10.14,309.9,1.296,0.245,17.5,106.2069,15.16,16.17,28.78,0,110.8,13.12,15.97,271.9
"2016-04-10 00:12:00",1533555,10.11,310,1.074,0.285,17.57,106.2078,15.17,16.17,28.72,0,110.8,13.12,15.97,272.0
"2016-04-10 00:12:30",1533556,10.96,312.1,1.641,0.583,17.6,106.2066,15.16,16.16,28.66,0,110.8,13.12,15.97,274.1
"2016-04-10 00:13:00",1533557,10.7,314.7,1.795,0.403,17.64,106.2055,15.16,16.16,28.74,0,110.8,13.12,15.96,276.7
"2016-04-10 00:13:30",1533558,10.16,312.7,1.883,0.399,17.48,106.2027,15.15,16.17,29.13,0,110.8,13.12,15.96,274.7
"2016-04-10 00:14:00",1533559,10.75,313.4,3.706,0.498,17.74,106.1993,15.14,16.15,28.65,0,110.8,13.12,15.95,275.4
"2016-04-10 00:14:30",1533560,10.43,311.5,4.351,0.287,17.68,106.1914,15.12,16.14,28.65,0,110.8,13.12,15.93,273.5
"2016-04-10 00:15:00",1533561,9.24,307.1,3.736,0.821,17.56,106.1909,15.12,16.15,28.9,0,110.8,13.12,15.93,269.1
"2016-04-10 00:15:30",1533562,9.32,321.8,5.351,0.498,17.66,106.1945,15.13,16.13,28.75,0,110.8,13.12,15.94,283.8
"2016-04-10 00:16:00",1533563,10.39,310.9,2.858,0.947,17.48,106.2035,15.15,16.13,29.3,0,110.8,13.12,15.96,272.9
"2016-04-10 00:16:30",1533564,12.06,317.2,5.341,0.791,17.57,106.2066,15.16,16.15,29.43,0,110.8,13.12,15.97,279.2
"2016-04-10 00:17:00",1533565,14.36,319.2,2.864,0.571,17.56,106.2078,15.17,16.14,28.09,0,110.8,13.12,15.97,281.2
"2016-04-10 00:17:30",1533566,14.87,317.3,1.138,0.29,17.61,106.2072,15.16,16.14,27.26,0,110.8,13.12,15.97,279.3
"2016-04-10 00:18:00",1533567,12.8,316.2,2.59,1.022,17.55,106.2027,15.15,16.12,27.58,0,110.8,13.12,15.96,278.2
"2016-04-10 00:18:30",1533568,13.4,318.8,2.553,0.981,17.62,106.1923,15.13,16.14,27.69,0,110.8,13.12,15.93,280.8
"2016-04-10 00:19:00",1533569,14.99,318.6,2.671,0.512,17.66,106.1852,15.11,16.12,27.51,0,110.8,13.12,15.91,280.6
"2016-04-10 00:19:30",1533570,15.02,320.9,2.998,0.457,17.63,106.1824,15.1,16.13,27.69,0,110.8,13.13,15.90,282.9
"2016-04-10 00:20:00",1533571,15.6,321.5,0.61,0.302,17.87,106.1824,15.1,16.12,26.68,0,110.8,13.13,15.90,283.5
"2016-04-10 00:20:30",1533572,15.75,319.3,1.103,0.274,17.82,106.1824,15.1,16.11,26.47,0,110.8,13.12,15.90,281.3
"2016-04-10 00:21:00",1533573,16.13,320.2,1.848,0.477,17.75,106.1824,15.1,16.1,26.71,0,110.8,13.12,15.90,282.2
"2016-04-10 00:21:30",1533574,15.15,319.3,0.896,0.235,17.91,106.1824,15.1,16.09,26.2,0,110.8,13.13,15.90,281.3
"2016-04-10 00:22:00",1533575,13.83,319.9,1.661,1.021,17.58,106.1776,15.09,16.09,26.9,0,110.8,13.12,15.89,281.9
"2016-04-10 00:22:30",1533576,15.06,319.7,1.967,0.239,17.67,106.1745,15.08,16.08,27.14,0,110.8,13.13,15.88,281.7
"2016-04-10 00:23:00",1533577,15.32,319.7,2.282,0.485,17.77,106.1695,15.07,16.07,27.04,0,110.8,13.13,15.87,281.7
"2016-04-10 00:23:30",1533578,15.5,317.4,2.861,0.605,17.59,106.1551,15.03,16.07,27.27,0,110.8,13.12,15.83,279.4
"2016-04-10 00:24:00",1533579,14.6,315.6,3.217,0.535,17.43,106.1487,15.01,16.05,27.92,0,110.8,13.13,15.82,277.6
"2016-04-10 00:24:30",1533580,14.7,312.8,2.646,0.355,17.53,106.1487,15.01,16.04,28.15,0,110.8,13.13,15.82,274.8
"2016-04-10 00:25:00",1533581,14.42,313.9,1.974,0.489,17.47,106.1487,15.01,16.04,28.49,0,110.8,13.13,15.82,275.9
"2016-04-10 00:25:30",1533582,13.79,313.8,1.039,0.513,17.45,106.1461,15.01,16.03,28.7,0,110.8,13.13,15.81,275.8
"2016-04-10 00:26:00",1533583,13.5,313,2.998,0.683,17.42,106.1242,14.95,16.01,29.04,0,110.8,13.13,15.76,275.0
"2016-04-10 00:26:30",1533584,13.75,313.2,2.352,0.741,17.52,106.1149,14.93,16,28.87,0,110.8,13.13,15.73,275.2
"2016-04-10 00:27:00",1533585,13.74,313,3.021,0.529,17.49,106.1149,14.93,15.97,28.68,0,110.8,13.13,15.73,275.0
"2016-04-10 00:27:30",1533586,12.66,308.7,0.876,0.515,17.49,106.1146,14.93,15.96,29.12,0,110.8,13.13,15.73,270.7
"2016-04-10 00:28:00",1533587,12.41,312,3.001,0.44,17.55,106.1053,14.9,15.96,28.98,0,110.8,13.12,15.71,274.0
"2016-04-10 00:28:30",1533588,13.85,314.4,1.528,0.498,17.36,106.0856,14.85,15.94,28.82,0,110.8,13.12,15.66,276.4
"2016-04-10 00:29:00",1533589,11.72,311,3.75,1.248,17.53,106.0811,14.84,15.9,29.06,0,110.8,13.12,15.64,273.0
"2016-04-10 00:29:30",1533590,10.54,305,2.025,0.572,17.5,106.0811,14.84,15.91,29.61,0,110.8,13.12,15.64,267.0
"2016-04-10 00:30:00",1533591,11.42,308.3,2.569,0.341,17.27,106.0794,14.84,15.88,29.6,0,110.8,13.12,15.64,270.3
"2016-04-10 00:30:30",1533592,11.15,304.1,6.031,0.84,17.31,106.0732,14.82,15.86,29.72,0,110.8,13.12,15.62,266.1
"2016-04-10 00:31:00",1533593,9.65,299.8,2.25,0.612,17.44,106.0664,14.8,15.87,29.88,0,110.8,13.12,15.61,261.8
"2016-04-10 00:31:30",1533594,10.43,302.6,5.417,0.457,17.39,106.0622,14.79,15.84,30,0,110.8,13.12,15.60,264.6
"2016-04-10 00:32:00",1533595,11.16,309.3,3.038,0.539,17.46,106.0552,14.77,15.83,30.08,0,110.8,13.12,15.58,271.3
"2016-04-10 00:32:30",1533596,11,309.1,4.133,0.865,17.33,106.0498,14.76,15.82,30.13,0,110.8,13.12,15.56,271.1
"2016-04-10 00:33:00",1533597,11.57,305.4,5.11,0.848,17.24,106.0473,14.75,15.82,29.99,0,110.8,13.12,15.56,267.4
"2016-04-10 00:33:30",1533598,10.54,306.2,3.038,0.848,17.43,106.0473,14.75,15.8,30.17,0,110.8,13.12,15.56,268.2
"2016-04-10 00:34:00",1533599,11.71,312,1.911,0.744,17.41,106.0473,14.75,15.79,30.07,0,110.8,13.13,15.56,274.0
"2016-04-10 00:34:30",1533600,12.5,306.8,3.273,0.572,17.33,106.0462,14.75,15.78,30.24,0,110.8,13.12,15.55,268.8
"2016-04-10 00:35:00",1533601,12.02,305.7,2.391,0.451,17.2,106.0417,14.74,15.78,30.17,0,110.8,13.13,15.54,267.7
"2016-04-10 00:35:30",1533602,12.74,306,3.467,0.597,17.24,106.0372,14.73,15.76,29.93,0,110.8,13.13,15.53,268.0
"2016-04-10 00:36:00",1533603,14.14,309.4,2.581,0.309,16.95,106.0166,14.68,15.76,29.53,0,110.8,13.13,15.48,271.4
"2016-04-10 00:36:30",1533604,14.65,309.2,2.343,0.497,16.89,106.0135,14.67,15.75,29.48,0,110.8,13.13,15.47,271.2
"2016-04-10 00:37:00",1533605,15.08,311.9,0.964,0.408,16.97,106.0079,14.65,15.73,29.52,0,110.8,13.13,15.46,273.9
"2016-04-10 00:37:30",1533606,16,316.3,7.496,1.381,18.92,105.9868,14.6,15.81,29.62,0,110.8,13.08,15.40,278.3
"2016-04-10 00:38:00",1533607,16.35,315.8,7.395,1.527,18.68,105.9783,14.58,15.77,29.73,0,110.8,13.08,15.38,277.8
"2016-04-10 00:38:30",1533608,16.33,319.4,8.94,1.308,19.17,105.9507,14.51,15.89,29.9,0,110.8,13.08,15.31,281.4
"2016-04-10 00:39:00",1533609,15.86,316.8,7.609,1.421,18.65,105.9445,14.49,15.7,29.61,0,110.8,13.08,15.29,278.8
"2016-04-10 00:39:30",1533610,14.35,309.5,1.05,0.288,16.29,105.9234,14.44,15.55,29.67,0,110.8,13.13,15.24,271.5
"2016-04-10 00:40:00",1533611,15.43,314.2,5.709,1.067,16.83,105.911,14.4,15.62,29.97,0,110.7,13.08,15.21,276.2
"2016-04-10 00:40:30",1533612,16.52,319.9,7.237,1.444,18.75,105.888,14.35,15.64,30.24,0,110.8,13.08,15.15,281.9
"2016-04-10 00:41:00",1533613,15.32,312.8,6.166,1.317,18.03,105.8775,14.32,15.53,29.99,0,110.7,13.08,15.12,274.8
"2016-04-10 00:41:30",1533614,15.72,318.5,7.83,1.695,19.32,105.8539,14.26,15.61,30.26,0,110.7,13.08,15.06,280.5
"2016-04-10 00:42:00",1533615,14.91,311.1,4.545,1.156,17.3,105.8436,14.23,15.42,30.4,0,110.7,13.08,15.03,273.1
"2016-04-10 00:42:30",1533616,16.4,313.4,8.52,1.657,18.73,105.8167,14.16,15.54,30.47,0,110.7,13.08,14.96,275.4
"2016-04-10 00:43:00",1533617,14.54,304.9,7.167,1.575,18.18,105.8111,14.15,15.38,30.5,0,110.7,13.08,14.95,266.9
"2016-04-10 00:43:30",1533618,13.75,301.6,3.611,0.532,16.43,105.7892,14.09,15.25,30.43,0,110.7,13.13,14.89,263.6
"2016-04-10 00:44:00",1533619,14.24,299.9,3.124,0.621,16.43,105.7857,14.08,15.21,30.54,0,110.7,13.13,14.89,261.9
"2016-04-10 00:44:30",1533620,14.28,303.9,1.576,0.6,16.37,105.7711,14.05,15.18,30.32,0,110.7,13.13,14.85,265.9
"2016-04-10 00:45:00",1533621,14.73,307.6,7.124,1.405,18.23,105.7549,14,15.28,30.15,0,110.7,13.08,14.81,269.6
"2016-04-10 00:45:30",1533622,15.78,311.8,8.14,1.472,19.71,105.7588,14.01,15.3,29.8,0,110.7,13.08,14.82,273.8
"2016-04-10 00:46:00",1533623,14.76,310.9,6.827,1.562,19.09,105.7523,14,15.18,29.96,0,110.7,13.08,14.80,272.9
"2016-04-10 00:46:30",1533624,14.94,314,7.737,1.525,19.82,105.7386,13.96,15.23,30.02,0,110.7,13.08,14.76,276.0
"2016-04-10 00:47:00",1533625,14.75,310.6,5.797,1.119,18.17,105.7377,13.96,15.17,30.01,0,110.7,13.07,14.76,272.6
"2016-04-10 00:47:30",1533626,15.04,310.2,6.451,1.043,17.91,105.7428,13.97,15.08,29.98,0,110.7,13.08,14.77,272.2
"2016-04-10 00:48:00",1533627,14.22,307.3,1.141,0.15,16.43,105.7446,13.98,15,29.7,0,110.7,13.12,14.78,269.3
"2016-04-10 00:48:30",1533628,14.43,310.9,2.347,0.592,16.55,105.7398,13.97,14.98,29.02,0,110.7,13.12,14.77,272.9
"2016-04-10 00:49:00",1533629,15.32,310.3,0.819,0.157,16.7,105.7367,13.96,14.96,28.8,0,110.7,13.13,14.76,272.3
"2016-04-10 00:49:30",1533630,15.21,311,1.706,0.238,17.11,105.7283,13.94,15.01,28.85,0,110.7,13.13,14.74,273.0
"2016-04-10 00:50:00",1533631,16.26,318.8,7.482,1.4,20.08,105.7193,13.91,15.18,29.03,0,110.7,13.08,14.71,280.8
"2016-04-10 00:50:30",1533632,15.75,317.6,7.484,1.481,20.32,105.7117,13.89,15.17,29.07,0,110.7,13.08,14.70,279.6
"2016-04-10 00:51:00",1533633,16.46,316.8,7.149,1.411,20.28,105.7114,13.89,15.16,29.08,0,110.7,13.08,14.69,278.8
"2016-04-10 00:51:30",1533634,15.11,313.3,6.429,1.411,18.3,105.7114,13.89,15.09,28.99,0,110.7,13.09,14.69,275.3
"2016-04-10 00:52:00",1533635,14.29,312.9,6.468,1.642,17.68,105.7114,13.89,14.94,28.84,0,110.7,13.09,14.69,274.9
"2016-04-10 00:52:30",1533636,12.97,308.3,1.4,0.245,16.35,105.7114,13.89,14.9,28.86,0,110.7,13.13,14.69,270.3
"2016-04-10 00:53:00",1533637,13.08,308.3,1.846,0.416,16.37,105.7108,13.89,14.89,28.95,0,110.7,13.14,14.69,270.3
"2016-04-10 00:53:30",1533638,13.14,307.3,1.743,0.197,16.55,105.7058,13.88,14.88,29.11,0,110.7,13.14,14.68,269.3
"2016-04-10 00:54:00",1533639,14.58,317.1,8.16,1.492,19.87,105.6967,13.86,15.06,29.2,0,110.7,13.1,14.66,279.1
"2016-04-10 00:54:30",1533640,14.58,321.5,7.204,1.468,19.96,105.681,13.82,15.09,29.38,0,110.7,13.1,14.62,283.5
"2016-04-10 00:55:00",1533641,14.08,319.6,7.537,1.531,19.97,105.6776,13.81,15.06,29.33,0,110.7,13.1,14.61,281.6
"2016-04-10 00:55:30",1533642,13.33,319.8,7.817,1.633,19.12,105.6776,13.81,14.99,29.32,0,110.6,13.1,14.61,281.8
"2016-04-10 00:56:00",1533643,12.44,311.4,4.051,0.739,16.81,105.6737,13.8,14.91,29.03,0,110.6,13.1,14.60,273.4
"2016-04-10 00:56:30",1533644,12.67,310.5,1.679,0.41,16.07,105.6636,13.77,14.81,29.12,0,110.6,13.14,14.57,272.5
"2016-04-10 00:57:00",1533645,14.09,309.7,1.933,0.361,16.16,105.65,13.74,14.8,29.42,0,110.6,13.14,14.54,271.7
"2016-04-10 00:57:30",1533646,15.86,313.3,6.276,1.618,17.82,105.6506,13.74,14.88,29.5,0,110.6,13.1,14.54,275.3
"2016-04-10 00:58:00",1533647,16.47,317.5,9.46,2.121,19.59,105.649,13.73,14.93,29.35,0,110.6,13.1,14.53,279.5
"2016-04-10 00:58:30",1533648,15.84,319,8.35,1.906,19.2,105.6291,13.68,14.95,29.31,0,110.6,13.1,14.48,281.0
"2016-04-10 00:59:00",1533649,17.67,320.9,8.24,1.329,20.1,105.624,13.67,14.97,28.56,0,110.6,13.1,14.47,282.9
"2016-04-10 00:59:30",1533650,16.86,316,7.919,1.284,18.93,105.6282,13.68,14.92,28.94,0,110.6,13.1,14.48,278.0
"2016-04-10 01:00:00",1533651,16.49,312.5,5.717,0.981,16.65,105.6327,13.69,14.7,29.32,0,110.6,13.1,14.49,274.5
"2016-04-10 01:00:30",1533652,17.85,310.8,5.989,1.334,16.88,105.6191,13.66,14.79,30.05,0,110.6,13.1,14.46,272.8
"2016-04-10 01:01:00",1533653,20.03,312.8,7.15,1.405,17.83,105.6071,13.63,14.77,29.74,0,110.6,13.1,14.43,274.8
"2016-04-10 01:01:30",1533654,19.69,317.2,8.35,1.839,19.13,105.6064,13.62,14.81,29.3,0,110.6,13.1,14.42,279.2
"2016-04-10 01:02:00",1533655,18.41,317.3,6.954,1.611,18.45,105.5885,13.58,14.77,29.72,0,110.6,13.1,14.38,279.3
"2016-04-10 01:02:30",1533656,20.77,320.4,7.433,1.617,19.23,105.5772,13.55,14.8,30.26,0,110.6,13.1,14.35,282.4
"2016-04-10 01:03:00",1533657,21.5,323.4,6.945,1.329,19.84,105.5589,13.5,14.79,29.85,0,110.6,13.1,14.30,285.4
"2016-04-10 01:03:30",1533658,19.06,317.9,6.352,1.024,18.99,105.5443,13.47,14.71,29.51,0,110.6,13.09,14.26,279.9
"2016-04-10 01:04:00",1533659,17.17,312.9,7.021,1.568,17.49,105.5375,13.45,14.63,29.72,0,110.6,13.09,14.25,274.9
"2016-04-10 01:04:30",1533660,16.61,311.8,5.606,1.007,16.79,105.5158,13.39,14.56,30.46,0,110.6,13.09,14.19,273.8
"2016-04-10 01:05:00",1533661,16.78,308.3,1.536,0.48,15.67,105.5096,13.38,14.47,30.93,0,110.6,13.14,14.18,270.3
"2016-04-10 01:05:30",1533662,17.27,315.9,8.35,1.466,18.72,105.4908,13.33,14.6,30.88,0,110.6,13.1,14.13,277.9
"2016-04-10 01:06:00",1533663,16.46,309.6,6.921,1.411,18.46,105.4767,13.29,14.55,31.2,0,110.6,13.1,14.09,271.6
"2016-04-10 01:06:30",1533664,15.33,303.9,7.127,1.145,17.38,105.4705,13.28,14.5,31.32,0,110.6,13.1,14.08,265.9
"2016-04-10 01:07:00",1533665,16.89,310,6.757,1.578,19.43,105.4451,13.21,14.54,31.57,0,110.6,13.1,14.01,272.0
"2016-04-10 01:07:30",1533666,16.49,302.4,6.021,1.282,17.08,105.4426,13.21,14.45,31.53,0,110.6,13.1,14.00,264.4
"2016-04-10 01:08:00",1533667,16.7,304.8,2.781,0.391,15.45,105.4319,13.18,14.25,31.23,0,110.6,13.15,13.98,266.8
"2016-04-10 01:08:30",1533668,17.31,307.4,1.57,0.298,16.1,105.4099,13.12,14.23,30.58,0,110.6,13.15,13.92,269.4
"2016-04-10 01:09:00",1533669,16.7,313.6,6.535,1.53,17.72,105.4091,13.12,14.34,31.2,0,110.6,13.11,13.92,275.6
"2016-04-10 01:09:30",1533670,17.12,311.6,7.148,1.878,18.73,105.4091,13.12,14.41,31.88,0,110.6,13.11,13.92,273.6
"2016-04-10 01:10:00",1533671,17.82,308.2,7.597,1.413,18.36,105.404,13.11,14.36,31.33,0,110.6,13.11,13.90,270.2
"2016-04-10 01:10:30",1533672,18.98,311,7.427,1.473,19.48,105.4007,13.1,14.39,31.01,0,110.6,13.11,13.90,273.0
"2016-04-10 01:11:00",1533673,17.96,306.3,6.455,1.775,17.6,105.4053,13.11,14.24,29.86,0,110.6,13.11,13.91,268.3
"2016-04-10 01:11:30",1533674,16.16,305.1,1.732,0.342,15.38,105.4133,13.13,14.13,31.29,0,110.6,13.15,13.93,267.1
"2016-04-10 01:12:00",1533675,16.32,303.6,1.849,0.301,15.79,105.4174,13.14,14.13,31.32,0,110.6,13.16,13.94,265.6
"2016-04-10 01:12:30",1533676,18.1,305.8,7.193,1.692,18.25,105.4171,13.14,14.23,30.97,0,110.6,13.11,13.94,267.8
"2016-04-10 01:13:00",1533677,18.32,305,7.616,1.377,18.5,105.4189,13.14,14.33,30.86,0,110.6,13.11,13.94,267.0
"2016-04-10 01:13:30",1533678,18.41,310.4,7.393,1.407,19.7,105.4221,13.15,14.35,31.15,0,110.6,13.11,13.95,272.4
"2016-04-10 01:14:00",1533679,18.22,311.6,7.313,1.416,19.37,105.4254,13.16,14.37,31.16,0,110.6,13.11,13.96,273.6
"2016-04-10 01:14:30",1533680,17.2,306.3,7.086,1.434,17.27,105.4244,13.16,14.26,30.75,0,110.6,13.11,13.96,268.3
"2016-04-10 01:15:00",1533681,16.29,301.8,0.69,0.259,15.84,105.4255,13.16,14.11,30.21,0,110.6,13.16,13.96,263.8
"2016-04-10 01:15:30",1533682,16.26,302.6,1.66,0.268,16.09,105.4331,13.18,14.12,29.87,0,110.6,13.16,13.98,264.6
"2016-04-10 01:16:00",1533683,16.44,307.4,6.87,1.193,18.16,105.4382,13.19,14.22,29.44,0,110.6,13.12,13.99,269.4
"2016-04-10 01:16:30",1533684,16.78,307.3,8.17,1.413,18.37,105.4403,13.2,14.26,30.24,0,110.6,13.12,14.00,269.3
"2016-04-10 01:17:00",1533685,16.42,310.9,7.248,1.405,19.14,105.4423,13.2,14.33,31.22,0,110.5,13.12,14.00,272.9
"2016-04-10 01:17:30",1533686,16.95,312.5,7.413,1.549,20.06,105.4435,13.21,14.39,30.25,0,110.6,13.12,14.01,274.5
"2016-04-10 01:18:00",1533687,16.03,309.4,9.38,1.59,19.17,105.4447,13.21,14.28,28.19,0,110.6,13.12,14.01,271.4
"2016-04-10 01:18:30",1533688,15.92,302.9,2.402,0.509,15.9,105.4447,13.21,14.13,28.51,0,110.6,13.16,14.01,264.9
"2016-04-10 01:19:00",1533689,16.71,300,1.048,0.524,15.79,105.4453,13.21,14.14,29.61,0,110.6,13.16,14.01,262.0
"2016-04-10 01:19:30",1533690,17.17,302.7,4.441,0.709,16.47,105.4523,13.23,14.22,29.31,0,110.6,13.12,14.03,264.7
"2016-04-10 01:20:00",1533691,17.36,308.5,7.775,1.473,18.79,105.4656,13.26,14.31,29.1,0,110.5,13.11,14.06,270.5
"2016-04-10 01:20:30",1533692,17.51,308.4,7.784,1.453,19.69,105.4701,13.28,14.39,28.51,0,110.5,13.11,14.07,270.4
"2016-04-10 01:21:00",1533693,18.58,310.2,7.308,1.414,19.87,105.4757,13.29,14.45,28.51,0,110.5,13.11,14.09,272.2
"2016-04-10 01:21:30",1533694,18.02,308.5,7.166,1.475,18.95,105.4785,13.3,14.38,28.79,0,110.5,13.11,14.10,270.5
"2016-04-10 01:22:00",1533695,15.82,303.4,2.828,0.556,16.08,105.4785,13.3,14.2,28,0,110.5,13.16,14.10,265.4
"2016-04-10 01:22:30",1533696,15.93,299.7,1.301,0.342,15.86,105.4785,13.3,14.22,28.4,0,110.5,13.16,14.10,261.7
"2016-04-10 01:23:00",1533697,16.21,303.6,5.525,0.865,16.73,105.4785,13.3,14.35,29.4,0,110.5,13.11,14.10,265.6
"2016-04-10 01:23:30",1533698,16.63,306.3,6.967,1.429,18.12,105.4785,13.3,14.34,28.93,0,110.5,13.11,14.10,268.3
"2016-04-10 01:24:00",1533699,16.55,312.2,9.34,1.492,19.52,105.4785,13.3,14.54,29.03,0,110.5,13.11,14.10,274.2
"2016-04-10 01:24:30",1533700,16.2,314.3,7.188,1.393,20.44,105.4785,13.3,14.52,27.39,0,110.5,13.12,14.10,276.3
"2016-04-10 01:25:00",1533701,15.32,317.4,9.85,1.719,19.71,105.4785,13.3,14.4,26.85,0,110.5,13.12,14.10,279.4
"2016-04-10 01:25:30",1533702,14.71,306.8,2.404,0.472,16.43,105.4822,13.31,14.25,26.51,0,110.5,13.17,14.11,268.8
"2016-04-10 01:26:00",1533703,14.4,305,2.185,0.425,16.09,105.5025,13.36,14.28,27.09,0,110.5,13.17,14.16,267.0
"2016-04-10 01:26:30",1533704,14.38,303.8,1.429,0.537,16.36,105.513,13.39,14.29,27.33,0,110.5,13.17,14.18,265.8
"2016-04-10 01:27:00",1533705,16.09,308.8,7.275,1.284,17.82,105.5147,13.39,14.42,27.37,0,110.5,13.12,14.19,270.8
"2016-04-10 01:27:30",1533706,16.15,311.2,6.814,1.559,19.16,105.5159,13.39,14.53,27.12,0,110.5,13.12,14.19,273.2
"2016-04-10 01:28:00",1533707,16.23,315.3,8.25,1.555,20.17,105.5188,13.4,14.62,27.64,0,110.5,13.12,14.20,277.3
"2016-04-10 01:28:30",1533708,15.97,314.7,7.734,1.447,19.73,105.5254,13.42,14.63,28.67,0,110.5,13.12,14.22,276.7
"2016-04-10 01:29:00",1533709,15.63,310.6,7.2,1.341,18.12,105.5247,13.42,14.5,27.62,0,110.5,13.12,14.21,272.6
"2016-04-10 01:29:30",1533710,15.09,308.7,1.257,0.337,16.19,105.5239,13.41,14.36,27.08,0,110.5,13.17,14.21,270.7
"2016-04-10 01:30:00",1533711,14.29,308.7,1.662,0.4,16.18,105.5265,13.42,14.38,26.94,0,110.5,13.17,14.22,270.7
"2016-04-10 01:30:30",1533712,14.26,312.3,6.1,1.005,17.26,105.5304,13.43,14.48,27.81,0,110.5,13.13,14.23,274.3
"2016-04-10 01:31:00",1533713,15.15,313.7,7.708,1.426,18.37,105.5364,13.45,14.51,27.47,0,110.5,13.13,14.24,275.7
"2016-04-10 01:31:30",1533714,15.9,319.5,6.61,1.431,20.41,105.5391,13.45,14.63,27.5,0,110.5,13.13,14.25,281.5
"2016-04-10 01:32:00",1533715,15.44,316.1,7.479,1.515,19.6,105.5394,13.45,14.63,27.67,0,110.5,13.13,14.25,278.1
"2016-04-10 01:32:30",1533716,15.52,312.2,7.966,1.392,18.91,105.5403,13.46,14.58,27.37,0,110.5,13.13,14.25,274.2
"2016-04-10 01:33:00",1533717,14.46,310.5,6.999,1.291,17.18,105.5459,13.47,14.42,27.4,0,110.5,13.13,14.27,272.5
"2016-04-10 01:33:30",1533718,14.08,308.8,1.512,0.265,16.02,105.5451,13.47,14.41,27.4,0,110.5,13.17,14.27,270.8
"2016-04-10 01:34:00",1533719,14.33,308.5,3.098,0.723,16.42,105.5471,13.47,14.38,27.19,0,110.5,13.17,14.27,270.5
"2016-04-10 01:34:30",1533720,15.44,311.6,6.841,1.586,18.68,105.5477,13.47,14.6,27.37,0,110.5,13.13,14.27,273.6
"2016-04-10 01:35:00",1533721,15.55,313.3,7.447,1.573,19.24,105.5477,13.47,14.58,27.95,0,110.5,13.13,14.27,275.3
"2016-04-10 01:35:30",1533722,15.51,314.4,7.885,1.513,19.87,105.5471,13.47,14.66,28.24,0,110.5,13.13,14.27,276.4
"2016-04-10 01:36:00",1533723,15.17,313,7.335,1.644,19.05,105.5463,13.47,14.63,28.46,0,110.5,13.13,14.27,275.0
"2016-04-10 01:36:30",1533724,15.03,309.8,5.923,1.379,17.38,105.5427,13.46,14.49,28.29,0,110.5,13.12,14.26,271.8
"2016-04-10 01:37:00",1533725,14.11,306.9,1.355,0.327,15.95,105.5334,13.44,14.39,27.85,0,110.5,13.17,14.24,268.9
"2016-04-10 01:37:30",1533726,13.85,305.2,1.689,0.287,16.18,105.5176,13.4,14.37,27.94,0,110.5,13.17,14.20,267.2
"2016-04-10 01:38:00",1533727,14.67,309.6,6.184,1.931,17.82,105.5142,13.39,14.49,28.27,0,110.5,13.12,14.19,271.6
"2016-04-10 01:38:30",1533728,14.82,315.3,8.16,1.512,19.97,105.5142,13.39,14.61,27.85,0,110.5,13.12,14.19,277.3
"2016-04-10 01:39:00",1533729,14.46,314.6,7.161,1.427,19.64,105.5142,13.39,14.53,27.45,0,110.5,13.12,14.19,276.6
"2016-04-10 01:39:30",1533730,13.73,314.9,8.06,1.395,18.92,105.5142,13.39,14.56,27.31,0,110.5,13.12,14.19,276.9
"2016-04-10 01:40:00",1533731,14.7,311.4,7.554,1.359,18.93,105.5142,13.39,14.56,27.7,0,110.5,13.12,14.19,273.4
"2016-04-10 01:40:30",1533732,13.57,309,2.929,0.651,16.35,105.5142,13.39,14.35,27.61,0,110.5,13.12,14.19,271.0
"2016-04-10 01:41:00",1533733,13.61,310.8,1.745,0.276,16.15,105.5142,13.39,14.35,27.45,0,110.5,13.17,14.19,272.8
"2016-04-10 01:41:30",1533734,12.91,310,1.572,0.226,16.39,105.5142,13.39,14.4,27.31,0,110.5,13.17,14.19,272.0
"2016-04-10 01:42:00",1533735,15.08,322.4,6.836,1.366,20.17,105.5142,13.39,14.57,27.46,0,110.5,13.13,14.19,284.4
"2016-04-10 01:42:30",1533736,14.74,319.1,7.35,1.49,19.9,105.5142,13.39,14.59,27.54,0,110.5,13.13,14.19,281.1
"2016-04-10 01:43:00",1533737,13.77,318.2,8.36,1.55,18.95,105.5142,13.39,14.5,27.51,0,110.5,13.13,14.19,280.2
"2016-04-10 01:43:30",1533738,13,318.1,6.953,1.394,19.07,105.5142,13.39,14.57,27.55,0,110.5,13.13,14.19,280.1
"2016-04-10 01:44:00",1533739,12.87,311.8,6.361,1.228,17.48,105.5142,13.39,14.46,27.76,0,110.5,13.13,14.19,273.8
"2016-04-10 01:44:30",1533740,12.1,306.4,0.743,0.163,16.07,105.5142,13.39,14.36,27.59,0,110.5,13.18,14.19,268.4
"2016-04-10 01:45:00",1533741,11.93,306.2,0.777,0.112,16.09,105.5142,13.39,14.36,27.72,0,110.5,13.18,14.19,268.2
"2016-04-10 01:45:30",1533742,13.03,311.3,7.477,1.306,17.77,105.5142,13.39,14.44,27.8,0,110.5,13.13,14.19,273.3
"2016-04-10 01:46:00",1533743,13.96,317.5,7.761,1.446,19.44,105.5142,13.39,14.56,27.64,0,110.5,13.13,14.19,279.5
"2016-04-10 01:46:30",1533744,13.4,318.4,7.722,1.404,19.14,105.5142,13.39,14.59,27.88,0,110.5,13.13,14.19,280.4